Race Coverage Navigation

TS # 3 / Blythe, CA  2019

 


TS STATS
TS Distance 89.67 
Total Distance 235.06 
Miles To Go 2835.22 
TS Climbing 235 
Total Climbing
TS  Elevation
TS  Net Elevation 379 
Map Filename Open Map 
Directions Filename  
Latitude 33.61 
Longitude -114.59 
Google Map  TimeStation Map 


TS Arrival Data
Arr Ord  #/Name Descending Arrival DT TS Dst Avg This TS Avg Overall
 1 R209 - Workhorses  06/12/2019 6:27 89.67  15.03  15.3 
 2 R207 - We Might Make It!  06/12/2019 6:44 89.67  16.06  15.04 
 3 399 - Valerio Zamboni  06/12/2019 8:30 89.67  13.15  14.75 
 4 623 - Ultra Paka Racing Team (Daniel Polman)  06/12/2019 5:48 89.67  16.45  17.22 
 5 622 - Thomas Odom-Team Kyle Pease Foundation  06/12/2019 5:56 89.67  16.81  17.07 
 6 621 - Themsen Ultracycling (Jacob Themsen)  06/12/2019 7:36 89.67  13.06  15.25 
 7 T418 - The Opportunists  06/16/2019 3:30 89.67  21.27  19.53 
 8 T417 - Team4RAAM 2019 powered by TGW Living Logistics  06/16/2019 5:34 89.67  16.81  16.65 
 9 T807 - Team ZOE International  06/16/2019 3:23 89.67  20.85  19.95 
 10 R403 - Team Viasat-Denver  06/12/2019 2:09 89.67  21.78  21.11 
 11 R404 - Team Viasat - Carlsbad  06/12/2019 1:16 89.67  23.81  22.9 
 12 T806 - Team SuperMarrow  06/16/2019 5:21 89.67  18.49  17.07 
 13 T416 - Team Rotary Raams Polio  06/16/2019 3:49 89.67  19.56  18.98 
 14 T805 - Team Oceanside  06/16/2019 2:51 89.67  23.91  20.83 
 15 R205 - Team OB2  06/12/2019 3:48 89.67  18.62  18.56 
 16 563 - Team Nico Ultracycling - In Fight against Cancer   06/12/2019 10:25 89.67  12.12  13.06 
 17 R120 - Team Next Step (Peter Pedersen)  06/12/2019 8:46 89.67  12.04  13.51 
 18 559 - Team Martin RAAM 2019 (Martin Bergmeister)  06/12/2019 7:20 89.67  14.5  15.78 
 19 T208 - Team Machine  06/16/2019 5:12 89.67  18.3  16.71 
 20 T207 - Team Life Time  06/16/2019 4:06 89.67  18.88  18.1 
 21 620 - Team Jefferson (Allan Jefferson)  06/12/2019 6:58 89.67  16.71  15.92 
 22 424 - Team i RON man Veterans supporting Veterans  06/12/2019 11:38 89.67  10.76  12.31 
 23 T804 - Team FSHD Skyland Trail  06/16/2019 3:31 89.67  21.61  19.64 
 24 T415 - TEAM FIRE VELO 935  06/16/2019 4:22 89.67  19.35  18.15 
 25 R104 - Team everve Christian (Christian Beichel)  06/12/2019 6:41 89.67  15.87  15.5 
 26 T803 - Team EndoPark  06/16/2019 4:44 89.67  18.18  17.81 
 27 T413 - TEAM BRASIL - SKIPPER  06/16/2019 4:40 89.67  18.81  17.7 
 28 R119 - Team BlueLine (Martha Hall)  06/12/2019 8:55 89.67  12.34  13.31 
 29 T412 - Team Aspect  06/16/2019 2:44 89.67  21.44  20.68 
 30 T411 - team alpha - tischlerei groemmer  06/16/2019 1:48 89.67  23.29  22.49 
 31 527 - TALABARDON (Herve Talabardon)  06/12/2019 9:40 89.67  12.28  13.68 
 32 527 - TALABARDON (Herve Talabardon)  06/12/2019 9:39 89.67  12.28  13.68 
 33 R402 - SUWOS  06/12/2019 4:30 89.67  17.36  17.45 
 34 R87 - Spoke Life Cycles / TRD (Lucas Spencer)  06/12/2019 12:19 89.67  10.8  11.34 
 35 617 - SOLO.kiwi (Craig Harper)  06/12/2019 5:16 89.67  18.05  18.04 
 36 T410 - Soap-Aid  06/16/2019 3:44 89.67  23.7  18.96 
 37 T409 - Serpentine Golden Girls  06/16/2019 6:32 89.67  16.97  15.45 
 38 161 - Seana Hogan  06/12/2019 6:57 89.67  15.69  15.86 
 39 T802 - Scorchers  06/16/2019 3:46 89.67  20.38  19.19 
 40 R401 - San Diego Sports Medicine/Zoca  06/12/2019 2:56 89.67  21.96  19.78 
 41 R401 - San Diego Sports Medicine/Zoca  06/12/2019 8:39 89.67  21.96  19.78 
 42 607 - Sabine Bird (Team Bean)  06/12/2019 10:23 89.67  10.37  12.81 
 43 R117 - ROGIE (Roger Foote)  06/12/2019 11:46 89.67  10.15  11.53 
 44 T408 - Radeln-fuer-Kinder (Cycling-for-Kids)  06/16/2019 3:15 89.67  20.77  19.67 
 45 T206 - Project Linear Acceleration  06/16/2019 3:21 89.67  20.23  19.19 
 46 T205 - Prevent Breast Cancer powered by Endomag  06/16/2019 4:47 89.67  17.93  17.16 
 47 R116 - Philippe May  06/12/2019 8:08 89.67  13.19  14.05 
 48 615 - Philipp Amhof  06/12/2019 6:12 89.67  15.87  16.85 
 49 329 - Peter Oyler  06/12/2019 6:41 89.67  17.3  16.69 
 50 614 - Per Nielsen  06/12/2019 10:33 89.67  12.01  12.86 
 51 T406 - Operation Walk Midwest  06/16/2019 3:31 89.67  21.61  19.19 
 52 T801 - Mind Over Matter  06/16/2019 5:57 89.67  16.16  16.27 
 53 R203 - Mike 'n' Jay Giretto con Amici  06/12/2019 5:10 89.67  16.61  16.77 
 54 594 - Mauerhofer Thomas  06/12/2019 6:01 89.67  15.55  17.24 
 55 612 - Markus K. Brandl  06/12/2019 5:25 89.67  18.12  17.92 
 56 279 - Marko Baloh  06/12/2019 4:44 89.67  18.94  19.43 
 57 349 - Mark Pattinson  06/12/2019 5:35 89.67  17.47  18.08 
 58 611 - Marcelo Soares " MIXIRICA "  06/12/2019 10:23 89.67  10.74  13.01 
 59 T204 - Lucan CRC  06/16/2019 4:34 89.67  17.87  17.41 
 60 416 - Leah Goldstein  06/12/2019 7:25 89.67  14.35  15.35 
 61 R202 - Laureus Alegra  06/12/2019 5:03 89.67  16.71  16.93 
 62 R115 - Kym Louie  06/12/2019 7:50 89.67  12.45  14.19 
 63 R114 - Krishna Prakash  06/12/2019 10:53 89.67  10.17  12.08 
 64 R122 - Kirk Gentle  06/12/2019 6:14 89.67  15.92  15.79 
 65 R113 - Kerry Dragon  06/12/2019 9:45 89.67  12.72  12.83 
 66 539 - Kari Rouvinen  06/12/2019 7:55 89.67  14.78  15.2 
 67 610 - Kabir Rachure  06/12/2019 8:24 89.67  15.11  14.63 
 68 T407 - Julian Becker   06/16/2019 3:18 89.67  20  19.56 
 69 T203 - JPsDuo  06/16/2019 6:01 89.67  15.64  15.71 
 70 R112 - John Hoopingarner  06/12/2019 12:58 89.67  8.89  10.92 
 71 510 - John C. Tarlton  06/12/2019 9:11 89.67  13.42  14.08 
 72 442 - Joe Barr  06/12/2019 5:16 89.67  20.38  18.44 
 73 R111 - Jennifer Orr  06/12/2019 5:06 89.67  17.13  17.01 
 74 R84 - James Jason Ingels  06/12/2019 7:55 89.67  15.46  14.41 
 75 R110 - James Golding  06/12/2019 10:51 89.67  9.49  12.13 
 76 609 - Jakob Olsen  06/12/2019 5:10 89.67  17.93  18.34 
 77 529 - Isa Pulver  06/12/2019 5:41 89.67  17.24  17.28 
 78 R121 - Ironmae (Rosecler Costa)  06/12/2019 5:30 89.67  17.7  16.48 
 79 T202 - Integra Medical - BAA Racing  06/16/2019 2:57 89.67  21.27  19.73 
 80 R201 - IN OUR PRIME  06/12/2019 4:44 89.67  17.47  17.35 
 81 R400 - HTX Velo Femme  06/12/2019 4:00 89.67  19.15  18.17 
 82 T405 - High Rollers  06/16/2019 4:43 89.67  17.99  17.45 
 83 618 - GREGORY ROBINSON  06/12/2019 8:03 89.67  14.12  14.85 
 84 411 - Geoff Brunner  06/12/2019 8:38 89.67  14.5  14.62 
 85 T404 - Gentlemen of speed  06/16/2019 2:00 89.67  22.61  21.83 
 86 R51 - Fabio Silvestri  06/12/2019 4:53 89.67  19.35  17.72 
 87 R200 - EY Legacy Builders 2019  06/12/2019 3:13 89.67  19.78  19.56 
 88 R108 - Eric C Pearce  06/12/2019 7:34 89.67  13.97  14.62 
 89 608 - Elin Starup  06/12/2019 7:54 89.67  14.39  14.8 
 90 T403 - EKJ Denmark  06/16/2019 3:29 89.67  19.56  19.16 
 91 T201 - EAT WELL  06/16/2019 2:06 89.67  22.42  21.21 
 92 T402 - EA/WFP RAAM Team  06/16/2019 5:00 89.67  17.53  17.03 
 93 288 - Dave Haase  06/12/2019 6:18 89.67  15.82  17.18 
 94 T401 - Data Techniques powered by Networks Centre  06/16/2019 1:29 89.67  23.7  22.82 
 95 367 - Daniela Genovesi  06/12/2019 9:45 89.67  11.28  13.33 
 96 R106 - Damaceleste.com (Valentina Tanzi)  06/12/2019 6:48 89.67  14.9  15.18 
 97 377 - Christoph Strasser  06/12/2019 4:20 89.67  20.15  20.12 
 98 605 - Christian Echavarria  06/12/2019 9:26 89.67  14.08  13.77 
 99 R103 - Chris Davies  06/12/2019 6:52 89.67  15.55  15.33 
 100 604 - Chieko Ozawa  06/12/2019 6:44 89.67  15.78  16.01 
 101 T400 - Cantastic4  06/15/2019 3:25 89.67 
 102 R102 - Build-A-Bike (Adam Kidd)  06/12/2019 15:11 89.67  7.66  9.95 
 103 T414 - Brazil Nuts  06/16/2019 4:39 89.67  20.15  17.74 
 104 491 - BOURREAU JACQUES  06/12/2019 19:20 89.67  6.3  8.76 
 105 R101 - Bobby Klatt  06/12/2019 12:46 89.67  11.05  11.09 
 106 T210 - Bike Wine Team  06/16/2019 6:33 89.67  16.21  15.26 
 107 T800 - Backstedt Racing Project 14  06/16/2019 1:28 89.67  25.38  23.55 
 108 T808 - Antonia's Friends 2019  06/16/2019 3:44 89.67  21.18  19.4 
 109 R124 - Andres Rodriguez  06/12/2019 5:13 89.67  18.12  16.91 
 110 568 - Alexandra Meixner  06/12/2019 7:32 89.67  14.5  15.2 
 111 603 - Alan Bradley  06/12/2019 6:01 89.67  17.87  17.24 
 112 T200 - AIR RELAX GoPro TEAM BRASIL  06/16/2019 2:36 89.67  22.14  20.26 
 113 R105 - 2nd Chance Racing (Craig Johnson)  06/12/2019 10:19 89.67  10.06  12.49